Regional Weather Roundup
Issued by NWS

Home | Current Version | Previous Version | Graphics & Text | Print | Product List | Glossary Off
Versions: 1 2 3 4 5 6 7 8 9 10 11 12 13 14 15 16 17 18 19 20 21 22 23 24 25 26 27 28 29 30 31 32 33 34 35 36 37 38 39 40 41 42 43 44 45 46 47 48 49 50

000
ASUS43 KTOP 041408
RWRKS

WEATHER ROUNDUP FOR KANSAS
NATIONAL WEATHER SERVICE GOODLAND KS
900 AM CDT TUE AUG 04 2015

NOTE:  "FAIR" INDICATES FEW OR NO CLOUDS BELOW 12,000 FEET WITH NO
SIGNIFICANT WEATHER AND/OR OBSTRUCTIONS TO VISIBILITY.

KSZ001>006-013>018-027>032-041>047-041500-
NORTHWEST KANSAS

CITY           SKY/WX    TMP DP  RH WIND       PRES   REMARKS
GOODLAND       MOSUNNY   71  64  78 S6        29.99R
HAYS           PTSUNNY   75  64  69 S10       29.96R
HILL CITY      PTSUNNY   73  68  84 SE6       29.95S
RUSSELL        PTSUNNY   76  69  79 S8        29.94R
$$

KSZ061>065-074>080-084>089-041500-
SOUTHWEST KANSAS

CITY           SKY/WX    TMP DP  RH WIND       PRES   REMARKS
DODGE CITY     MOSUNNY   72  63  73 S14       29.97F
ELKHART          N/A     71  60  68 W8          N/A
GARDEN CITY    MOSUNNY   72  64  76 S12       29.97R
GREAT BEND     CLOUDY    73  66  78 SW10      29.95S
LIBERAL        MOSUNNY   70  63  78 S6        29.98F
PRATT          CLOUDY    72  66  83 SW7       29.99R
$$

KSZ066>073-081>083-090>101-041500-
SOUTHEAST KANSAS

CITY           SKY/WX    TMP DP  RH WIND       PRES   REMARKS
CHANUTE        CLOUDY    74  69  85 SE6       29.97S
COFFEYVILLE    CLOUDY    76  69  79 S7        29.98R
HUTCHINSON     CLOUDY    76  67  73 S9        29.96R
MEDICINE LODGE   N/A     72  67  84 SW5       29.97R
NEWTON         CLOUDY    75  64  69 SW9       29.99S
PARSONS        CLOUDY    76  70  82 S5        29.98R
WICHITA INTL   CLOUDY    76  68  76 SW7       29.97R
WICHITA JABRA  CLOUDY    77  67  71 SW12      29.97R
WICHITA MCCONL CLOUDY    76  66  72 SW6       29.97R
$$

KSZ007>012-019>026-033>040-048>060-102>105-041500-
NORTHEAST KANSAS

CITY           SKY/WX    TMP DP  RH WIND       PRES   REMARKS
CONCORDIA      PTSUNNY   77  72  84 E3        29.97R
EMPORIA        CLOUDY    74  69  85 E5        29.99R
LAWRENCE       PTSUNNY   76  71  85 SE6       29.97R
MANHATTAN      PTSUNNY   77  70  79 CALM      29.95S
MARYSVILLE     PTSUNNY   75  70  83 SE3       29.98R
OLATHE IND     PTSUNNY   77  70  79 S6        29.98R
OLATHE EXE     PTSUNNY   75  70  84 SE5       29.98R
SALINA         CLOUDY    78  68  71 SE6       29.96R
TOPEKA BILLARD PTSUNNY   78  72  81 SE3       29.96S
TOPEKA FORBES  PTSUNNY   78  69  73 S6        29.96S
$$


USA.gov is the U.S. government's official web portal to all federal, state and local government web resources and services.